| time (UTC) | temp F | wind direction | speed MPH | gust MPH | rain 1hr in | rain 24hr in | rain mn in | humidity % | barometer mb |
| 20260904154445 | 69 | 125 | 0.0 | 3.0 | 0.00 | 0.35 | 0.09 | 99 | 1015.9 |
| 20260904154224 | 69 | 149 | 0.0 | 3.0 | 0.00 | 0.35 | 0.09 | 99 | 1015.8 |
| 20260904153101 | 69 | 0 | 1.0 | 3.0 | 0.00 | 0.38 | 0.09 | 99 | 1016.2 |
| 20260904153002 | 69 | 0 | 1.0 | 3.0 | 0.00 | 0.38 | 0.09 | 99 | 1016.2 |
| 20260904152102 | 69 | 207 | 1.0 | 3.0 | 0.01 | 0.43 | 0.09 | 99 | 1016.4 |
| 20260904152001 | 69 | 0 | 1.0 | 3.0 | 0.01 | 0.44 | 0.09 | 99 | 1016.4 |
| 20260904151102 | 69 | 136 | 1.0 | 3.0 | 0.02 | 0.44 | 0.09 | 99 | 1016.4 |
| 20260904151002 | 68 | 0 | 1.0 | 3.0 | 0.03 | 0.44 | 0.09 | 99 | 1016.4 |
| 20260904150001 | 68 | 118 | 0.0 | 2.0 | 0.04 | 0.44 | 0.09 | 99 | 1016.1 |
| 20260904145102 | 67 | 0 | 0.0 | 2.0 | 0.04 | 0.44 | 0.09 | 99 | 1016.2 |
| 20260904145002 | 67 | 0 | 0.0 | 2.0 | 0.04 | 0.44 | 0.09 | 99 | 1016.2 |
| 20260904144101 | 67 | 0 | 1.0 | 3.0 | 0.04 | 0.44 | 0.09 | 99 | 1016.4 |
| 20260904144002 | 67 | 0 | 1.0 | 3.0 | 0.04 | 0.44 | 0.09 | 99 | 1016.2 |
| 20260904143102 | 67 | 131 | 1.0 | 3.0 | 0.04 | 0.44 | 0.09 | 99 | 1015.9 |
| 20260904143003 | 67 | 134 | 1.0 | 3.0 | 0.04 | 0.44 | 0.09 | 99 | 1015.9 |
| 20260904142102 | 67 | 155 | 1.0 | 2.0 | 0.03 | 0.43 | 0.08 | 99 | 1015.9 |
| 20260904142002 | 67 | 123 | 1.0 | 2.0 | 0.03 | 0.43 | 0.08 | 99 | 1015.9 |
| 20260904141101 | 67 | 0 | 0.0 | 2.0 | 0.02 | 0.42 | 0.07 | 99 | 1015.9 |
| 20260904141002 | 67 | 144 | 1.0 | 2.0 | 0.01 | 0.42 | 0.07 | 99 | 1015.9 |
| 20260904140001 | 67 | 209 | 1.0 | 2.0 | 0.02 | 0.41 | 0.06 | 99 | 1015.9 |
| 20260904135441 | 67 | 0 | 1.0 | 2.0 | 0.04 | 0.41 | 0.06 | 99 | 1016.1 |
| 20260904135223 | 67 | 0 | 1.0 | 2.0 | 0.04 | 0.41 | 0.06 | 99 | 1016.1 |
| 20260904134103 | 67 | 166 | 0.0 | 1.0 | 0.05 | 0.41 | 0.06 | 99 | 1016.1 |
| 20260904134004 | 67 | 0 | 0.0 | 1.0 | 0.05 | 0.41 | 0.06 | 99 | 1016.1 |
| 20260904133104 | 67 | 0 | 0.0 | 1.0 | 0.05 | 0.41 | 0.06 | 99 | 1016.4 |
| 20260904133005 | 67 | 0 | 0.0 | 2.0 | 0.05 | 0.41 | 0.06 | 99 | 1016.4 |
| 20260904132103 | 67 | 63 | 0.0 | 2.0 | 0.06 | 0.41 | 0.06 | 99 | 1016.2 |
| 20260904131954 | 67 | 55 | 1.0 | 2.0 | 0.06 | 0.41 | 0.06 | 99 | 1016.4 |
| 20260904131537 | 67 | 121 | 1.0 | 3.0 | 0.06 | 0.41 | 0.06 | 99 | 1016.4 |
| 20260904130955 | 67 | 111 | 1.0 | 3.0 | 0.06 | 0.41 | 0.06 | 99 | 1016.4 |
| 20260904130435 | 66 | 0 | 0.0 | 0.0 | 0.04 | 0.39 | 0.04 | 99 | 1016.6 |
| 20260904130219 | 66 | 0 | 0.0 | 0.0 | 0.04 | 0.39 | 0.04 | 99 | 1016.7 |
| 20260904125102 | 66 | 0 | 0.0 | 1.0 | 0.02 | 0.37 | 0.01 | 99 | 1016.2 |
| 20260904124953 | 66 | 0 | 0.0 | 1.0 | 0.01 | 0.36 | 0.01 | 99 | 1016.2 |
| 20260904124102 | 66 | 0 | 1.0 | 3.0 | 0.01 | 0.36 | 0.01 | 99 | 1016.2 |
| 20260904123955 | 66 | 0 | 1.0 | 3.0 | 0.01 | 0.36 | 0.00 | 99 | 1016.2 |
| 20260904123102 | 66 | 173 | 1.0 | 3.0 | 0.00 | 0.35 | 0.00 | 99 | 1015.8 |
| 20260904122940 | 66 | 157 | 1.0 | 4.0 | 0.00 | 0.35 | 0.00 | 99 | 1015.8 |
| 20260904122102 | 66 | 165 | 1.0 | 4.0 | 0.00 | 0.35 | 0.00 | 99 | 1016.0 |
| 20260904121941 | 66 | 137 | 1.0 | 3.0 | 0.00 | 0.35 | 0.00 | 99 | 1016.0 |
| 20260904121102 | 66 | 0 | 1.0 | 3.0 | 0.00 | 0.35 | 0.00 | 99 | 1015.8 |
| 20260904120941 | 66 | 203 | 1.0 | 3.0 | 0.00 | 0.35 | 0.00 | 99 | 1015.7 |
| 20260904115941 | 66 | 130 | 1.0 | 3.0 | 0.00 | 0.35 | 0.00 | 99 | 1015.5 |
| 20260904115102 | 66 | 0 | 0.0 | 2.0 | 0.00 | 0.35 | 0.00 | 99 | 1015.6 |
| 20260904114930 | 66 | 140 | 0.0 | 2.0 | 0.00 | 0.35 | 0.00 | 99 | 1015.7 |
| 20260904114103 | 66 | 0 | 0.0 | 3.0 | 0.00 | 0.35 | 0.00 | 99 | 1015.6 |
| 20260904113930 | 66 | 0 | 0.0 | 3.0 | 0.00 | 0.35 | 0.00 | 99 | 1015.6 |
| 20260904113103 | 66 | 0 | 0.0 | 2.0 | 0.00 | 0.35 | 0.00 | 99 | 1015.7 |
| 20260904112929 | 66 | 312 | 0.0 | 3.0 | 0.00 | 0.35 | 0.00 | 99 | 1015.6 |
| 20260904112103 | 66 | 177 | 0.0 | 3.0 | 0.00 | 0.35 | 0.00 | 99 | 1015.4 |
| 20260904111929 | 66 | 158 | 0.0 | 2.0 | 0.00 | 0.35 | 0.00 | 99 | 1015.4 |
| 20260904111103 | 66 | 0 | 0.0 | 0.0 | 0.00 | 0.35 | 0.00 | 99 | 1015.4 |
| 20260904110928 | 66 | 0 | 0.0 | 0.0 | 0.00 | 0.35 | 0.00 | 99 | 1015.4 |
| 20260904105929 | 66 | 0 | 0.0 | 0.0 | 0.00 | 0.35 | 0.00 | 99 | 1015.1 |
| 20260904105102 | 66 | 0 | 0.0 | 0.0 | 0.00 | 0.35 | 0.00 | 99 | 1015.0 |
| 20260904104929 | 66 | 0 | 0.0 | 0.0 | 0.00 | 0.35 | 0.00 | 99 | 1015.0 |
| 20260904104102 | 66 | 0 | 0.0 | 0.0 | 0.00 | 0.35 | 0.00 | 99 | 1014.9 |
| 20260904103928 | 66 | 0 | 0.0 | 0.0 | 0.00 | 0.35 | 0.00 | 99 | 1014.8 |
| 20260904103102 | 66 | 0 | 0.0 | 2.0 | 0.00 | 0.35 | 0.00 | 99 | 1014.8 |
| 20260904102929 | 66 | 0 | 0.0 | 2.0 | 0.00 | 0.35 | 0.00 | 99 | 1014.9 |
| 20260904102549 | 66 | 90 | 0.0 | 2.0 | 0.00 | 0.35 | 0.00 | 99 | 1014.5 |
| 20260904101929 | 66 | 0 | 1.0 | 2.0 | 0.00 | 0.35 | 0.00 | 99 | 1014.5 |
| 20260904101103 | 66 | 118 | 0.0 | 2.0 | 0.00 | 0.35 | 0.00 | 99 | 1014.4 |
| 20260904101017 | 66 | 0 | 0.0 | 2.0 | 0.00 | 0.35 | 0.00 | 99 | 1014.4 |
| 20260904100930 | 66 | 127 | 0.0 | 2.0 | 0.00 | 0.35 | 0.00 | 99 | 1014.4 |
| 20260904095929 | 66 | 0 | 0.0 | 2.0 | 0.00 | 0.35 | 0.00 | 99 | 1014.3 |
| 20260904095543 | 66 | 97 | 0.0 | 2.0 | 0.00 | 0.35 | 0.00 | 99 | 1014.1 |
| 20260904094929 | 66 | 0 | 0.0 | 1.0 | 0.00 | 0.35 | 0.00 | 99 | 1014.2 |
| 20260904094538 | 66 | 0 | 0.0 | 2.0 | 0.00 | 0.35 | 0.00 | 99 | 1014.3 |
| 20260904093930 | 66 | 0 | 0.0 | 2.0 | 0.00 | 0.35 | 0.00 | 99 | 1014.3 |
| 20260904093103 | 66 | 0 | 0.0 | 2.0 | 0.00 | 0.35 | 0.00 | 99 | 1014.6 |
| 20260904092929 | 66 | 0 | 0.0 | 2.0 | 0.00 | 0.35 | 0.00 | 99 | 1014.6 |
| 20260904092551 | 66 | 0 | 0.0 | 2.0 | 0.00 | 0.35 | 0.00 | 99 | 1015.0 |
| 20260904091934 | 66 | 0 | 0.0 | 2.0 | 0.00 | 0.35 | 0.00 | 99 | 1015.0 |
| 20260904091102 | 66 | 0 | 0.0 | 0.0 | 0.00 | 0.35 | 0.00 | 99 | 1015.1 |
| 20260904090930 | 66 | 0 | 0.0 | 0.0 | 0.00 | 0.35 | 0.00 | 99 | 1015.2 |
| 20260904085931 | 66 | 0 | 0.0 | 2.0 | 0.00 | 0.35 | 0.00 | 99 | 1015.1 |
| 20260904085410 | 66 | 69 | 0.0 | 2.0 | 0.00 | 0.35 | 0.00 | 99 | 1015.1 |
| 20260904085150 | 66 | 0 | 0.0 | 2.0 | 0.00 | 0.35 | 0.00 | 99 | 1015.0 |
| 20260904084543 | 66 | 0 | 0.0 | 2.0 | 0.00 | 0.35 | 0.00 | 99 | 1015.2 |
| 20260904083930 | 66 | 332 | 0.0 | 2.0 | 0.00 | 0.35 | 0.00 | 99 | 1015.1 |
| 20260904083101 | 66 | 0 | 0.0 | 1.0 | 0.00 | 0.35 | 0.00 | 99 | 1014.9 |
| 20260904082929 | 66 | 0 | 0.0 | 2.0 | 0.00 | 0.35 | 0.00 | 99 | 1014.9 |
| 20260904082101 | 66 | 0 | 0.0 | 2.0 | 0.00 | 0.35 | 0.00 | 99 | 1014.8 |
| 20260904081930 | 66 | 107 | 0.0 | 2.0 | 0.00 | 0.35 | 0.00 | 99 | 1014.8 |
| 20260904081101 | 66 | 0 | 0.0 | 0.0 | 0.00 | 0.35 | 0.00 | 99 | 1015.1 |
| 20260904080930 | 66 | 0 | 0.0 | 0.0 | 0.00 | 0.35 | 0.00 | 99 | 1015.2 |
| 20260904080101 | 66 | 0 | 0.0 | 0.0 | 0.00 | 0.35 | 0.00 | 99 | 1015.5 |
| 20260904075930 | 66 | 0 | 0.0 | 0.0 | 0.00 | 0.35 | 0.00 | 99 | 1015.4 |
| 20260904075101 | 66 | 0 | 0.0 | 0.0 | 0.00 | 0.35 | 0.00 | 99 | 1015.1 |
| 20260904074929 | 65 | 0 | 0.0 | 0.0 | 0.00 | 0.35 | 0.00 | 99 | 1015.1 |
| 20260904074101 | 65 | 0 | 0.0 | 1.0 | 0.00 | 0.35 | 0.00 | 99 | 1014.9 |
| 20260904073931 | 65 | 0 | 0.0 | 2.0 | 0.00 | 0.35 | 0.00 | 99 | 1014.9 |
| 20260904073541 | 65 | 85 | 0.0 | 2.0 | 0.00 | 0.35 | 0.00 | 99 | 1014.8 |
| 20260904072932 | 65 | 0 | 0.0 | 2.0 | 0.00 | 0.35 | 0.00 | 99 | 1014.9 |
| 20260904072104 | 65 | 0 | 0.0 | 0.0 | 0.00 | 0.35 | 0.00 | 100 | 1015.0 |
| 20260904071932 | 65 | 0 | 0.0 | 0.0 | 0.00 | 0.35 | 0.00 | 99 | 1014.9 |
| 20260904071100 | 65 | 0 | 0.0 | 2.0 | 0.00 | 0.35 | 0.00 | 99 | 1014.8 |
| 20260904070931 | 65 | 0 | 0.0 | 2.0 | 0.00 | 0.35 | 0.00 | 99 | 1014.9 |
| 20260904070411 | 65 | 0 | 0.0 | 0.0 | 0.00 | 0.35 | 0.00 | 99 | 1015.2 |
| 20260904070153 | 65 | 0 | 0.0 | 0.0 | 0.00 | 0.35 | 0.00 | 99 | 1015.2 |
| 20260904065542 | 65 | 0 | 0.0 | 0.0 | 0.00 | 0.35 | 0.00 | 99 | 1015.5 |
| 20260904064931 | 65 | 0 | 0.0 | 0.0 | 0.00 | 0.35 | 0.00 | 99 | 1015.5 |
| 20260904064102 | 65 | 0 | 0.0 | 1.0 | 0.00 | 0.35 | 0.00 | 100 | 1015.7 |
| 20260904063930 | 65 | 0 | 0.0 | 1.0 | 0.00 | 0.35 | 0.00 | 99 | 1015.6 |
| 20260904063411 | 64 | 0 | 0.0 | 0.0 | 0.00 | 0.35 | 0.00 | 100 | 1015.8 |
| 20260904063150 | 64 | 0 | 0.0 | 0.0 | 0.00 | 0.35 | 0.00 | 99 | 1015.8 |
| 20260904062102 | 64 | 0 | 0.0 | 0.0 | 0.00 | 0.35 | 0.00 | 100 | 1015.8 |
| 20260904061930 | 64 | 0 | 0.0 | 0.0 | 0.00 | 0.35 | 0.00 | 100 | 1015.8 |
| 20260904061102 | 64 | 0 | 0.0 | 0.0 | 0.00 | 0.35 | 0.00 | 100 | 1015.7 |
| 20260904060931 | 64 | 0 | 0.0 | 0.0 | 0.00 | 0.35 | 0.00 | 100 | 1015.7 |
| 20260904055930 | 64 | 0 | 0.0 | 0.0 | 0.00 | 0.35 | 0.00 | 100 | 1015.7 |
| 20260904055103 | 64 | 0 | 0.0 | 0.0 | 0.00 | 0.35 | 0.00 | 100 | 1015.6 |
| 20260904054918 | 64 | 0 | 0.0 | 0.0 | 0.00 | 0.35 | 0.00 | 100 | 1015.7 |
| 20260904054102 | 64 | 0 | 0.0 | 0.0 | 0.00 | 0.35 | 0.00 | 100 | 1015.8 |
| 20260904053918 | 64 | 0 | 0.0 | 0.0 | 0.00 | 0.35 | 0.00 | 100 | 1015.8 |
| 20260904053103 | 64 | 0 | 0.0 | 0.0 | 0.00 | 0.35 | 0.00 | 100 | 1015.7 |
| 20260904052918 | 64 | 0 | 0.0 | 0.0 | 0.00 | 0.35 | 0.00 | 100 | 1015.7 |
| 20260904052103 | 64 | 0 | 0.0 | 0.0 | 0.00 | 0.35 | 0.00 | 100 | 1015.7 |
| 20260904052027 | 64 | 0 | 0.0 | 0.0 | 0.00 | 0.35 | 0.00 | 100 | 1015.9 |
| 20260904051918 | 64 | 0 | 0.0 | 0.0 | 0.00 | 0.35 | 0.00 | 100 | 1015.7 |
| 20260904050919 | 64 | 0 | 0.0 | 0.0 | 0.00 | 0.35 | 0.00 | 100 | 1015.9 |
| 20260904045918 | 64 | 0 | 0.0 | 0.0 | 0.00 | 0.35 | 0.00 | 100 | 1015.8 |
| 20260904045102 | 65 | 0 | 0.0 | 0.0 | 0.00 | 0.35 | 0.00 | 100 | 1015.8 |
| 20260904044902 | 65 | 0 | 0.0 | 0.0 | 0.00 | 0.35 | 0.00 | 100 | 1015.9 |
| 20260904044107 | 65 | 0 | 0.0 | 0.0 | 0.00 | 0.35 | 0.00 | 100 | 1015.9 |
| 20260904043903 | 65 | 0 | 0.0 | 0.0 | 0.00 | 0.35 | 0.00 | 100 | 1015.9 |
| 20260904043102 | 65 | 0 | 0.0 | 2.0 | 0.00 | 0.35 | 0.00 | 100 | 1015.9 |
| 20260904042903 | 65 | 0 | 0.0 | 2.0 | 0.00 | 0.35 | 0.00 | 100 | 1015.9 |
| 20260904042540 | 65 | 0 | 0.0 | 1.0 | 0.00 | 0.35 | 0.00 | 100 | 1015.8 |
| 20260904041903 | 65 | 0 | 0.0 | 1.0 | 0.00 | 0.35 | 0.00 | 100 | 1015.8 |
| 20260904041340 | 65 | 0 | 0.0 | 0.0 | 0.00 | 0.35 | 0.00 | 100 | 1015.7 |
| 20260904041130 | 65 | 0 | 0.0 | 0.0 | 0.00 | 0.35 | 0.00 | 100 | 1015.7 |
| 20260904035903 | 64 | 0 | 0.0 | 1.0 | 0.00 | 0.35 | 0.35 | 100 | 1015.5 |
| 20260904035535 | 64 | 0 | 0.0 | 0.0 | 0.00 | 0.35 | 0.35 | 100 | 1015.4 |
| 20260904034902 | 64 | 0 | 0.0 | 0.0 | 0.00 | 0.35 | 0.35 | 100 | 1015.3 |
| 20260904034537 | 64 | 0 | 0.0 | 0.0 | 0.00 | 0.35 | 0.35 | 100 | 1015.2 |
| 20260904033903 | 64 | 0 | 0.0 | 0.0 | 0.00 | 0.35 | 0.35 | 100 | 1015.2 |
| 20260904033101 | 64 | 0 | 0.0 | 0.0 | 0.00 | 0.35 | 0.35 | 99 | 1015.2 |
| 20260904032908 | 64 | 0 | 0.0 | 0.0 | 0.00 | 0.35 | 0.35 | 99 | 1015.1 |
| 20260904032104 | 65 | 0 | 0.0 | 0.0 | 0.00 | 0.35 | 0.35 | 99 | 1015.1 |
| 20260904031904 | 65 | 0 | 0.0 | 0.0 | 0.00 | 0.35 | 0.35 | 99 | 1015.1 |
| 20260904031103 | 65 | 0 | 0.0 | 0.0 | 0.00 | 0.35 | 0.35 | 99 | 1015.1 |
| 20260904030903 | 65 | 0 | 0.0 | 0.0 | 0.00 | 0.35 | 0.35 | 99 | 1015.1 |
| 20260904025902 | 65 | 0 | 0.0 | 1.0 | 0.00 | 0.35 | 0.35 | 99 | 1014.9 |
| 20260904025544 | 65 | 0 | 0.0 | 1.0 | 0.00 | 0.35 | 0.35 | 99 | 1015.0 |
| 20260904024902 | 65 | 259 | 0.0 | 1.0 | 0.00 | 0.35 | 0.35 | 99 | 1014.9 |
| 20260904024615 | 65 | 0 | 0.0 | 0.0 | 0.00 | 0.35 | 0.35 | 99 | 1015.0 |
| 20260904024405 | 65 | 0 | 0.0 | 0.0 | 0.00 | 0.35 | 0.35 | 99 | 1015.1 |
| 20260904023102 | 65 | 0 | 0.0 | 0.0 | 0.00 | 0.35 | 0.35 | 99 | 1015.0 |
| 20260904022902 | 65 | 0 | 0.0 | 0.0 | 0.00 | 0.35 | 0.35 | 99 | 1015.0 |
| 20260904022102 | 65 | 0 | 0.0 | 0.0 | 0.00 | 0.35 | 0.35 | 99 | 1015.0 |
| 20260904021902 | 65 | 0 | 0.0 | 0.0 | 0.00 | 0.35 | 0.35 | 99 | 1015.0 |
| 20260904021102 | 66 | 0 | 0.0 | 0.0 | 0.00 | 0.35 | 0.35 | 99 | 1015.0 |
| 20260904020902 | 66 | 0 | 0.0 | 0.0 | 0.00 | 0.35 | 0.35 | 99 | 1014.9 |
| 20260904020104 | 66 | 0 | 0.0 | 0.0 | 0.00 | 0.35 | 0.35 | 99 | 1014.9 |
| 20260904015905 | 66 | 0 | 0.0 | 0.0 | 0.00 | 0.35 | 0.35 | 99 | 1015.0 |
| 20260904015103 | 66 | 0 | 0.0 | 0.0 | 0.00 | 0.35 | 0.35 | 99 | 1015.0 |
| 20260904014903 | 66 | 0 | 0.0 | 0.0 | 0.00 | 0.35 | 0.35 | 99 | 1015.0 |
| 20260904014107 | 67 | 0 | 0.0 | 0.0 | 0.00 | 0.35 | 0.35 | 99 | 1015.3 |
| 20260904013901 | 67 | 0 | 0.0 | 0.0 | 0.00 | 0.35 | 0.35 | 99 | 1015.3 |
| 20260904013350 | 67 | 0 | 0.0 | 0.0 | 0.00 | 0.35 | 0.35 | 99 | 1015.3 |
| 20260904013141 | 67 | 0 | 0.0 | 0.0 | 0.00 | 0.35 | 0.35 | 99 | 1015.3 |
| 20260904012347 | 67 | 0 | 0.0 | 0.0 | 0.00 | 0.35 | 0.35 | 99 | 1015.3 |
| 20260904012143 | 67 | 0 | 0.0 | 0.0 | 0.00 | 0.35 | 0.35 | 99 | 1015.3 |
| 20260904011101 | 67 | 0 | 0.0 | 1.0 | 0.00 | 0.35 | 0.35 | 99 | 1015.1 |
| 20260904010901 | 67 | 0 | 0.0 | 1.0 | 0.00 | 0.35 | 0.35 | 99 | 1015.1 |
| 20260904010101 | 67 | 71 | 0.0 | 1.0 | 0.00 | 0.35 | 0.35 | 99 | 1015.0 |
| 20260904005901 | 67 | 0 | 0.0 | 1.0 | 0.00 | 0.35 | 0.35 | 99 | 1015.0 |
| 20260904005100 | 67 | 0 | 0.0 | 1.0 | 0.00 | 0.35 | 0.35 | 99 | 1014.9 |
| 20260904005025 | 68 | 53 | 0.0 | 1.0 | 0.00 | 0.35 | 0.35 | 99 | 1014.7 |
| 20260904004900 | 67 | 0 | 0.0 | 1.0 | 0.00 | 0.35 | 0.35 | 99 | 1014.8 |
| 20260904003901 | 68 | 0 | 0.0 | 1.0 | 0.00 | 0.35 | 0.35 | 99 | 1014.7 |
| 20260904003345 | 68 | 0 | 0.0 | 2.0 | 0.00 | 0.35 | 0.35 | 98 | 1014.6 |
| 20260904003141 | 68 | 0 | 0.0 | 2.0 | 0.00 | 0.35 | 0.35 | 98 | 1014.6 |
| 20260904002055 | 68 | 78 | 0.0 | 2.0 | 0.00 | 0.35 | 0.35 | 98 | 1014.2 |
| 20260904001900 | 68 | 0 | 0.0 | 2.0 | 0.00 | 0.35 | 0.35 | 98 | 1014.2 |
| 20260904001056 | 68 | 0 | 1.0 | 3.0 | 0.00 | 0.35 | 0.35 | 98 | 1014.2 |
| 20260904000902 | 68 | 0 | 1.0 | 3.0 | 0.00 | 0.35 | 0.35 | 98 | 1014.2 |
| 20260904000634 | 69 | 300 | 1.0 | 4.0 | 0.00 | 0.35 | 0.35 | 98 | 1014.2 |
| 20260904000442 | 69 | 58 | 1.0 | 4.0 | 0.00 | 0.35 | 0.35 | 98 | 1014.1 |
| 20260903235339 | 69 | 0 | 0.0 | 3.0 | 0.00 | 0.35 | 0.35 | 98 | 1014.0 |
| 20260903235142 | 69 | 323 | 0.0 | 3.0 | 0.00 | 0.35 | 0.35 | 98 | 1014.1 |
| 20260903234051 | 69 | 177 | 0.0 | 2.0 | 0.00 | 0.35 | 0.35 | 98 | 1013.9 |
| 20260903233903 | 69 | 199 | 0.0 | 2.0 | 0.00 | 0.35 | 0.35 | 98 | 1013.9 |
| 20260903233050 | 69 | 0 | 0.0 | 2.0 | 0.00 | 0.35 | 0.35 | 98 | 1013.8 |
| 20260903232902 | 69 | 0 | 0.0 | 2.0 | 0.00 | 0.35 | 0.35 | 98 | 1013.8 |
| 20260903232051 | 69 | 87 | 0.0 | 2.0 | 0.00 | 0.35 | 0.35 | 98 | 1013.5 |
| 20260903231902 | 69 | 0 | 0.0 | 4.0 | 0.00 | 0.35 | 0.35 | 98 | 1013.4 |
| 20260903231052 | 69 | 0 | 1.0 | 4.0 | 0.00 | 0.35 | 0.35 | 98 | 1013.0 |
| 20260903230901 | 69 | 90 | 1.0 | 4.0 | 0.00 | 0.35 | 0.35 | 98 | 1013.0 |
| 20260903230338 | 69 | 0 | 1.0 | 3.0 | 0.00 | 0.35 | 0.35 | 98 | 1013.0 |
| 20260903230139 | 69 | 205 | 1.0 | 3.0 | 0.00 | 0.35 | 0.35 | 98 | 1013.0 |
| 20260903225525 | 69 | 92 | 1.0 | 3.0 | 0.00 | 0.35 | 0.35 | 98 | 1013.3 |
| 20260903224901 | 69 | 203 | 1.0 | 3.0 | 0.00 | 0.35 | 0.35 | 98 | 1013.3 |
| 20260903224048 | 69 | 0 | 0.0 | 3.0 | 0.00 | 0.35 | 0.35 | 98 | 1013.8 |
| 20260903224000 | 69 | 0 | 0.0 | 3.0 | 0.00 | 0.35 | 0.35 | 98 | 1014.2 |
| 20260903223901 | 69 | 0 | 0.0 | 3.0 | 0.00 | 0.35 | 0.35 | 98 | 1013.9 |
| 20260903222901 | 69 | 0 | 0.0 | 3.0 | 0.00 | 0.35 | 0.35 | 98 | 1014.2 |
| 20260903222046 | 69 | 0 | 1.0 | 3.0 | 0.00 | 0.35 | 0.35 | 98 | 1014.0 |
| 20260903221902 | 69 | 105 | 0.0 | 3.0 | 0.00 | 0.35 | 0.35 | 97 | 1014.3 |
| 20260903221046 | 69 | 0 | 1.0 | 3.0 | 0.00 | 0.35 | 0.35 | 97 | 1014.3 |
| 20260903220904 | 69 | 63 | 1.0 | 3.0 | 0.00 | 0.35 | 0.35 | 97 | 1014.2 |
| 20260903220043 | 69 | 249 | 0.0 | 3.0 | 0.00 | 0.35 | 0.35 | 97 | 1014.5 |
| 20260903215900 | 69 | 0 | 0.0 | 3.0 | 0.00 | 0.35 | 0.35 | 97 | 1014.4 |
| 20260903215044 | 70 | 93 | 1.0 | 3.0 | 0.00 | 0.35 | 0.35 | 97 | 1014.3 |
| 20260903214903 | 70 | 0 | 1.0 | 3.0 | 0.00 | 0.35 | 0.35 | 97 | 1014.3 |
| 20260903214342 | 69 | 0 | 2.0 | 6.0 | 0.00 | 0.35 | 0.35 | 96 | 1014.3 |
| 20260903214132 | 69 | 215 | 2.0 | 6.0 | 0.00 | 0.35 | 0.35 | 96 | 1014.5 |
| 20260903213038 | 70 | 0 | 0.0 | 3.0 | 0.02 | 0.35 | 0.35 | 96 | 1014.9 |
| 20260903212901 | 70 | 0 | 0.0 | 3.0 | 0.02 | 0.35 | 0.35 | 95 | 1014.7 |
| 20260903212338 | 70 | 0 | 1.0 | 3.0 | 0.05 | 0.35 | 0.35 | 94 | 1014.4 |
| 20260903212132 | 70 | 0 | 1.0 | 3.0 | 0.04 | 0.35 | 0.35 | 94 | 1014.5 |
| 20260903211513 | 70 | 68 | 1.0 | 4.0 | 0.06 | 0.35 | 0.35 | 94 | 1014.4 |
| 20260903210903 | 70 | 0 | 1.0 | 6.0 | 0.06 | 0.35 | 0.35 | 94 | 1014.5 |
| 20260903210829 | 70 | 0 | 1.0 | 6.0 | 0.07 | 0.35 | 0.35 | 95 | 1014.5 |
| 20260903210133 | 70 | 73 | 1.0 | 6.0 | 0.07 | 0.35 | 0.35 | 95 | 1014.5 |
| 20260903205037 | 69 | 17 | 2.0 | 9.0 | 0.08 | 0.35 | 0.35 | 96 | 1014.8 |
| 20260903204901 | 69 | 35 | 2.0 | 9.0 | 0.08 | 0.35 | 0.35 | 97 | 1014.7 |
| 20260903204037 | 69 | 328 | 1.0 | 6.0 | 0.17 | 0.35 | 0.35 | 98 | 1014.8 |
| 20260903203854 | 69 | 0 | 2.0 | 7.0 | 0.18 | 0.35 | 0.35 | 98 | 1014.9 |
| 20260903203329 | 69 | 358 | 2.0 | 7.0 | 0.16 | 0.33 | 0.33 | 97 | 1014.7 |
| 20260903203127 | 69 | 326 | 2.0 | 7.0 | 0.17 | 0.33 | 0.33 | 97 | 1014.8 |
| 20260903202518 | 68 | 356 | 2.0 | 7.0 | 0.14 | 0.31 | 0.31 | 97 | 1015.1 |
| 20260903201854 | 68 | 1 | 2.0 | 7.0 | 0.13 | 0.30 | 0.30 | 97 | 1015.2 |
| 20260903201035 | 68 | 316 | 2.0 | 9.0 | 0.12 | 0.29 | 0.29 | 97 | 1015.5 |
| 20260903200856 | 68 | 296 | 2.0 | 9.0 | 0.12 | 0.29 | 0.29 | 97 | 1015.4 |
| 20260903200031 | 69 | 333 | 3.0 | 7.0 | 0.11 | 0.28 | 0.28 | 96 | 1015.1 |
| 20260903195853 | 69 | 355 | 3.0 | 7.0 | 0.11 | 0.28 | 0.28 | 96 | 1015.0 |
| 20260903195031 | 69 | 39 | 4.0 | 12.0 | 0.10 | 0.27 | 0.27 | 95 | 1015.2 |
| 20260903194853 | 69 | 65 | 4.0 | 12.0 | 0.09 | 0.26 | 0.26 | 95 | 1015.2 |
| 20260903194029 | 70 | 29 | 3.0 | 12.0 | 0.01 | 0.18 | 0.17 | 94 | 1015.7 |
| 20260903193852 | 70 | 279 | 3.0 | 12.0 | 0.00 | 0.17 | 0.17 | 94 | 1015.5 |
| 20260903193029 | 71 | 0 | 2.0 | 9.0 | 0.00 | 0.17 | 0.17 | 95 | 1015.4 |
| 20260903192852 | 71 | 330 | 2.0 | 9.0 | 0.00 | 0.17 | 0.17 | 95 | 1015.3 |
| 20260903192029 | 71 | 0 | 0.0 | 3.0 | 0.00 | 0.17 | 0.17 | 94 | 1014.1 |
| 20260903191853 | 71 | 0 | 0.0 | 3.0 | 0.00 | 0.17 | 0.17 | 94 | 1014.0 |
| 20260903191503 | 71 | 0 | 1.0 | 4.0 | 0.00 | 0.17 | 0.17 | 95 | 1014.1 |
| 20260903190852 | 71 | 0 | 1.0 | 4.0 | 0.00 | 0.17 | 0.17 | 95 | 1014.2 |
| 20260903190029 | 71 | 0 | 2.0 | 7.0 | 0.00 | 0.17 | 0.17 | 95 | 1014.1 |
| 20260903185850 | 71 | 169 | 3.0 | 7.0 | 0.00 | 0.17 | 0.17 | 96 | 1014.1 |
| 20260903185325 | 71 | 0 | 0.0 | 1.0 | 0.00 | 0.17 | 0.17 | 96 | 1013.9 |
| 20260903185122 | 71 | 299 | 1.0 | 5.0 | 0.00 | 0.17 | 0.17 | 96 | 1014.4 |
| 20260903184028 | 71 | 0 | 0.0 | 1.0 | 0.00 | 0.17 | 0.17 | 96 | 1013.3 |
| 20260903183851 | 72 | 0 | 0.0 | 1.0 | 0.00 | 0.17 | 0.17 | 96 | 1013.1 |
| 20260903183028 | 72 | 0 | 0.0 | 2.0 | 0.00 | 0.17 | 0.17 | 95 | 1013.8 |
| 20260903182850 | 72 | 0 | 0.0 | 2.0 | 0.00 | 0.17 | 0.17 | 95 | 1013.7 |
| 20260903182030 | 72 | 0 | 0.0 | 1.0 | 0.00 | 0.17 | 0.17 | 94 | 1013.6 |
| 20260903181850 | 72 | 0 | 0.0 | 1.0 | 0.00 | 0.17 | 0.17 | 94 | 1013.8 |
| 20260903181030 | 72 | 0 | 0.0 | 2.0 | 0.00 | 0.17 | 0.17 | 93 | 1013.6 |
| 20260903180851 | 72 | 0 | 0.0 | 2.0 | 0.00 | 0.17 | 0.17 | 93 | 1013.6 |
| 20260903180030 | 73 | 137 | 0.0 | 3.0 | 0.00 | 0.17 | 0.17 | 92 | 1013.6 |
| 20260903175846 | 73 | 107 | 0.0 | 3.0 | 0.00 | 0.17 | 0.17 | 92 | 1013.6 |
| 20260903175028 | 73 | 0 | 1.0 | 4.0 | 0.00 | 0.17 | 0.17 | 93 | 1013.6 |
| 20260903174845 | 72 | 0 | 1.0 | 4.0 | 0.00 | 0.17 | 0.17 | 93 | 1013.6 |
| 20260903174030 | 72 | 311 | 0.0 | 3.0 | 0.00 | 0.17 | 0.17 | 92 | 1013.7 |
| 20260903173846 | 72 | 0 | 0.0 | 3.0 | 0.00 | 0.17 | 0.17 | 92 | 1013.7 |
| 20260903173029 | 72 | 343 | 1.0 | 5.0 | 0.06 | 0.17 | 0.17 | 92 | 1013.8 |
| 20260903172845 | 72 | 0 | 1.0 | 5.0 | 0.06 | 0.17 | 0.17 | 92 | 1013.8 |
| 20260903172511 | 71 | 51 | 1.0 | 5.0 | 0.06 | 0.17 | 0.17 | 92 | 1014.0 |
| 20260903171846 | 71 | 0 | 1.0 | 5.0 | 0.06 | 0.17 | 0.17 | 92 | 1014.0 |
| 20260903171028 | 70 | 67 | 1.0 | 4.0 | 0.06 | 0.17 | 0.17 | 93 | 1013.9 |
| 20260903170842 | 70 | 325 | 1.0 | 4.0 | 0.06 | 0.17 | 0.17 | 92 | 1013.9 |
| 20260903170029 | 69 | 0 | 0.0 | 3.0 | 0.07 | 0.17 | 0.17 | 95 | 1014.0 |
| 20260903165844 | 69 | 0 | 1.0 | 3.0 | 0.07 | 0.17 | 0.17 | 95 | 1014.0 |
| 20260903165555 | 68 | 304 | 1.0 | 4.0 | 0.07 | 0.17 | 0.17 | 96 | 1013.9 |
| 20260903165417 | 68 | 0 | 1.0 | 4.0 | 0.07 | 0.17 | 0.17 | 96 | 1013.7 |
| 20260903164321 | 67 | 195 | 1.0 | 5.0 | 0.07 | 0.17 | 0.17 | 95 | 1014.1 |
| 20260903164111 | 67 | 0 | 1.0 | 5.0 | 0.07 | 0.17 | 0.17 | 96 | 1014.1 |
| 20260903163024 | 67 | 231 | 0.0 | 2.0 | 0.05 | 0.11 | 0.11 | 96 | 1014.9 |
| 20260903162839 | 67 | 0 | 0.0 | 2.0 | 0.05 | 0.11 | 0.11 | 96 | 1015.0 |
| 20260903162019 | 67 | 0 | 0.0 | 2.0 | 0.10 | 0.11 | 0.11 | 95 | 1014.6 |
| 20260903161838 | 67 | 0 | 0.0 | 2.0 | 0.11 | 0.11 | 0.11 | 95 | 1014.4 |
| 20260903161016 | 67 | 0 | 1.0 | 3.0 | 0.11 | 0.11 | 0.11 | 95 | 1014.6 |
| 20260903160836 | 67 | 121 | 2.0 | 6.0 | 0.11 | 0.11 | 0.11 | 94 | 1014.6 |
| 20260903160331 | 67 | 310 | 1.0 | 5.0 | 0.10 | 0.10 | 0.09 | 91 | 1015.9 |
| 20260903160106 | 67 | 251 | 2.0 | 6.0 | 0.10 | 0.10 | 0.10 | 90 | 1015.9 |
| 20260903155017 | 68 | 190 | 2.0 | 7.0 | 0.09 | 0.09 | 0.09 | 91 | 1015.8 |